{"data":{"norad_id":53691,"intl_designator":"2022-105AV","name":"STARLINK-4560","alt_names":[],"object_type":"PAYLOAD","status":"ACTIVE","operator":null,"country":"US","launch_date":"2022-08-31","launch_site_code":"AFWTR","launch_vehicle":null,"mission":null,"orbit_class":"UNKNOWN","rcs_meters":null,"size_class":null,"mass_kg":null,"dimensions":null,"purposes":["comms"],"wikipedia_slug":null,"has_3d_model":false,"image_url":null,"decayed_at":null,"tle_current":{"epoch":"2026-09-20T22:42:02.962368Z","epoch_age_seconds":42789,"freshness":"FRESH","line1":"1 53691U 22105AV  26263.94586762 -.00000295  00000+0 -68027-5 0  9995","line2":"2 53691  97.2846 140.6970 0001710  91.3847 268.7592 15.33435324222817","mean_motion":15.33435324,"eccentricity":0.000171,"inclination_deg":97.2846,"raan_deg":140.697,"arg_perigee_deg":91.3847,"mean_anomaly_deg":268.7592,"bstar":-6.8027e-6,"rev_number":22281,"period_min":93.906797206401,"perigee_km":464.40168936509,"apogee_km":466.74223783064,"semimajor_km":6843.7089635979,"source":"CELESTRAK","updated_at":"2026-09-21T09:00:32.980617Z"}}}